This is the latest recevied weather packets stored in our database for station/object GW1542. If no packets are shown the sender has not sent any weather packets the latest 10 day(s).
| Time | Temp. | Humidity | Pressure | Rain* | Wind** | Luminosity | Snow |
|---|---|---|---|---|---|---|---|
| 1778117970 | 10° C | 97% | 1013.8 hPa | 20.32 mm | - | - | - |
| 1778112948 | 10.56° C | 96% | 1012.8 hPa | 20.07 mm | - | - | - |
| 1778111494 | 10.56° C | 96% | 1013.5 hPa | 20.07 mm | - | - | - |
| 1778106442 | 11.11° C | 95% | 1012.8 hPa | 19.3 mm | - | - | - |
| 1778105715 | 11.67° C | 94% | 1012.8 hPa | 19.3 mm | - | - | - |
| 1778105358 | 11.67° C | 93% | 1012.8 hPa | 19.3 mm | - | - | - |
| 1778105023 | 11.67° C | 94% | 1012.8 hPa | 19.3 mm | - | - | - |
| 1778104659 | 11.67° C | 94% | 1012.5 hPa | 19.3 mm | - | - | - |
| 1778102833 | 11.67° C | 95% | 1012.5 hPa | 19.05 mm | - | - | - |
| 1778100331 | 12.78° C | 94% | 1011.8 hPa | 18.8 mm | - | - | - |
| 1778099591 | 13.33° C | 95% | 1011.8 hPa | 18.54 mm | - | - | - |
| 1778096394 | 13.33° C | 94% | 1011.5 hPa | 17.78 mm | - | - | - |
| 1778094943 | 13.89° C | 94% | 1011.1 hPa | 17.53 mm | - | - | - |
| 1778094221 | 13.89° C | 95% | 1011.5 hPa | 17.53 mm | - | - | - |
| 1778092760 | 13.33° C | 95% | 1011.1 hPa | 17.53 mm | - | - | - |
| 1778089887 | 13.89° C | 94% | 1011.5 hPa | 17.53 mm | - | - | - |
| 1778085586 | 14.44° C | 94% | 1011.5 hPa | 14.48 mm | - | - | - |
| 1778084869 | 14.44° C | 93% | 1011.8 hPa | 14.22 mm | - | - | - |
| 1778084146 | 14.44° C | 92% | 1011.5 hPa | 13.97 mm | - | - | - |
| 1778080174 | 15° C | 89% | 1010.8 hPa | 13.46 mm | - | - | - |
| 1778079791 | 15° C | 90% | 1010.4 hPa | 13.46 mm | - | - | - |
| 1778077277 | 13.89° C | 95% | 1010.4 hPa | 13.46 mm | - | - | - |
| 1778076575 | 13.89° C | 95% | 1010.8 hPa | 13.21 mm | - | - | - |
| 1778074430 | 12.22° C | 97% | 1010.8 hPa | 12.7 mm | - | - | - |
| 1778071906 | 11.67° C | 96% | 1010.8 hPa | 11.68 mm | - | - | - |
* Rain since midnight (hover to see other rain measurements)
** Current wind speed in m/s (hover to see current wind gust speed)